Theta_e
310 308 309 308 307 308 309 311 312 312 313 313 311 309 309 308 308 306 306 306 305 306 308 310 311 312 318 323 327 328 330 331 333 333 333 333 334 333 330 334 334 334 334 334
308 309 308 307 308 310 312 312 312 312 312 312 311 310 308 307 307 307 307 305 305 306 306 308 311 311 311 316 322 327 329 330 332 333 333 331 331 330 332 333 333 332 332 332
307 309 308 311 312 312 312 311 311 311 312 309 310 306 306 309 309 309 307 306 305 305 305 305 307 310 312 312 317 323 327 330 331 332 332 331 331 330 330 331 332 331 331 330
312 312 309 312 312 310 312 311 311 312 310 308 308 307 307 308 307 306 305 304 304 304 305 304 306 308 310 312 314 319 325 328 330 331 331 330 329 328 328 328 329 330 330 330
312 311 312 312 312 310 311 312 311 312 311 313 310 309 306 307 309 307 305 305 309 308 307 307 306 309 311 311 312 315 321 326 329 330 330 330 329 328 328 327 327 327 328 329
311 310 311 310 311 311 310 311 309 311 308 309 309 307 305 305 307 309 311 312 311 311 310 310 311 312 313 313 311 313 318 323 326 328 329 329 328 328 327 325 324 323 323 325
313 312 311 310 312 312 310 307 307 308 310 309 308 308 307 307 306 309 309 310 311 309 306 305 305 308 310 312 312 311 314 317 321 324 326 327 327 326 325 324 322 321 319 318
312 314 312 310 311 312 310 307 308 308 311 308 308 311 311 309 307 308 308 308 307 307 306 306 306 308 310 310 312 313 313 313 315 316 317 319 321 322 321 320 319 318 317 316
310 309 310 310 310 311 313 312 307 309 296 308 308 307 307 307 308 308 308 309 310 309 306 306 307 309 310 310 311 311 312 312 312 312 313 314 314 315 315 315 315 315 315 315
308 312 310 310 310 310 310 309 313 309 306 306 306 308 308 309 308 308 311 310 309 308 307 307 307 309 310 310 311 311 311 311 311 311 311 312 312 312 313 313 313 314 314 314
309 311 311 310 311 311 311 312 311 310 308 309 308 307 304 307 309 310 311 311 311 310 308 306 306 309 309 309 310 311 311 312 312 312 311 310 311 311 311 311 312 312 312 313
309 310 309 310 308 308 309 310 310 311 310 308 309 309 309 309 309 308 309 309 311 310 308 307 307 308 308 309 309 310 310 310 312 312 311 311 310 310 310 310 310 310 310 311
311 311 308 312 311 310 310 309 309 308 307 310 309 310 306 306 306 307 307 307 308 309 309 306 305 306 307 309 309 310 310 311 311 310 310 310 310 310 310 310 309 309 309 309
312 312 310 314 313 310 311 314 313 310 309 312 311 310 309 308 309 308 307 307 310 308 306 305 306 307 308 308 308 308 308 309 309 309 309 309 310 310 310 309 308 308 308 308
314 313 314 313 315 316 317 317 315 316 312 311 313 313 310 310 310 310 308 307 307 308 306 305 305 304 305 306 307 307 307 307 307 308 308 308 308 308 307 307 307 306 307 307
312 313 315 313 314 316 317 316 315 314 314 314 313 314 310 308 307 307 307 307 307 306 305 304 304 304 304 304 304 304 304 304 304 305 305 305 305 305 305 306 306 305 305 305
314 312 314 312 312 313 316 314 314 314 312 314 315 313 310 310 309 309 309 306 306 305 305 303 302 302 303 303 302 302 302 301 301 301 302 303 303 302 302 303 303 303 304 304
314 312 312 313 309 316 308 305 310 312 311 311 312 311 309 306 305 306 303 304 304 303 303 301 301 302 302 302 302 301 303 303 302 301 299 299 300 301 300 301 301 302 302 301
310 310 310 311 308 302 304 305 306 310 306 307 307 302 303 302 302 306 303 303 304 302 302 301 301 301 301 301 301 300 301 301 300 300 299 298 297 297 297 297 298 299 299 299
307 308 310 302 306 298 300 302 301 300 304 303 304 304 303 302 304 301 300 299 299 301 301 301 301 301 300 301 299 298 298 297 297 297 296 295 295 295 295 295 296 296 296 295
305 308 310 305 307 300 297 301 300 299 299 297 302 303 302 302 300 298 297 297 299 299 299 299 298 298 299 297 296 295 295 294 296 294 293 293 292 293 293 294 294 293 292 292
300 300 299 303 303 301 298 298 300 298 298 298 301 301 300 298 296 295 295 295 296 297 297 297 296 296 296 295 294 293 291 293 292 292 291 290 291 291 291 291 291 290 290 289
298 297 296 298 298 298 300 300 301 298 298 299 300 299 297 296 295 295 295 295 295 295 296 296 295 293 295 294 292 290 291 290 289 289 289 289 288 289 289 289 289 288 287 287
292 289 292 292 291 294 299 302 301 300 300 298 297 297 295 295 295 294 293 294 293 294 294 294 293 291 291 292 291 290 289 288 287 287 287 287 287 287 287 286 286 286 285 284
292 292 290 289 291 290 289 294 296 298 296 296 293 293 293 293 293 292 292 291 293 293 293 291 290 289 289 289 289 288 287 286 286 286 286 286 286 286 285 284 284 284 284 285
292 294 295 293 293 293 293 292 292 292 292 291 290 291 291 291 292 292 290 292 292 292 291 288 288 287 288 287 287 286 284 285 285 284 283 285 285 285 284 285 285 286 286 285
Wind_Speed
3 4 7 10 7 3 6 4 3 1 0 3 6 7 12 10 6 11 11 10 10 13 16 24 29 37 41 41 40 43 42 43 43 42 43 41 42 40 40 42 37 36 36 38
5 4 7 4 4 4 2 3 2 1 1 1 4 11 11 11 8 8 10 10 11 8 8 16 23 23 36 43 44 43 44 43 44 43 41 35 34 39 43 43 42 41 39 38
6 3 7 5 4 6 3 5 4 4 1 1 3 9 6 5 4 5 8 9 7 11 11 9 15 23 28 36 42 43 45 45 45 44 38 34 30 33 34 38 38 38 37 39
3 1 6 4 4 5 4 3 3 4 3 3 2 5 5 7 10 7 11 6 9 9 7 7 9 14 21 31 39 40 40 42 42 42 41 39 32 29 34 33 36 37 35 35
6 6 5 3 4 5 6 3 4 2 3 3 4 1 7 4 7 11 10 7 4 3 4 6 7 10 12 18 29 36 36 37 37 40 39 39 35 34 35 33 34 35 37 37
3 0 4 5 3 1 7 5 7 5 3 2 7 6 5 4 6 2 2 3 4 4 4 5 5 6 4 5 12 21 26 28 31 32 36 37 37 37 34 34 34 34 35 38
1 0 1 3 6 5 4 6 2 3 2 5 2 2 8 9 7 4 6 3 4 6 7 8 8 10 8 7 3 7 14 20 22 25 29 34 37 37 37 37 37 36 35 36
6 3 7 5 7 9 7 7 6 7 4 4 2 6 5 4 8 4 6 4 7 8 7 7 8 5 3 4 3 1 6 11 16 20 25 28 31 34 36 37 37 38 39 40
6 4 1 2 2 5 5 4 5 6 3 3 4 6 10 8 4 3 6 7 6 6 6 7 9 8 6 2 2 1 4 8 12 17 21 26 30 32 35 36 36 38 39 39
7 3 1 0 2 2 4 6 3 3 2 4 4 4 5 6 8 7 8 7 6 6 7 6 4 4 3 2 2 2 3 5 9 13 17 23 25 28 31 34 37 38 39 37
6 4 1 2 6 8 3 3 2 4 5 5 1 5 7 5 5 10 6 3 3 2 5 5 7 6 4 2 1 3 5 6 9 14 17 21 22 23 27 32 36 38 37 38
6 5 4 7 2 2 1 5 5 5 4 4 3 6 1 9 7 8 7 7 3 3 1 2 5 7 9 9 9 9 10 12 16 18 20 23 22 23 26 30 34 36 36 35
7 2 3 5 4 0 4 4 4 4 3 8 5 5 3 8 7 4 5 4 4 3 5 4 5 5 9 12 13 15 16 19 22 23 23 25 26 28 30 32 32 32 32 32
7 3 5 8 4 4 5 3 2 6 4 7 13 6 5 5 6 9 8 5 3 5 7 7 8 12 17 17 18 18 18 18 20 22 25 27 29 32 34 34 31 30 30 30
3 5 3 3 5 4 2 3 5 6 5 8 5 7 2 5 11 13 4 5 5 6 8 8 8 11 20 23 24 23 23 22 21 21 22 25 29 32 34 34 31 28 28 29
1 2 3 2 2 4 5 11 9 7 4 8 5 19 7 7 4 5 9 9 7 7 7 7 7 12 18 23 27 29 27 26 24 25 27 28 29 29 29 29 29 27 26 26
5 5 3 4 3 6 5 18 15 8 7 5 8 19 3 4 3 4 3 7 5 4 4 7 8 13 19 22 23 28 30 30 28 27 27 28 29 28 26 25 25 25 24 22
7 6 2 2 4 6 5 3 8 15 11 10 12 13 5 3 1 2 5 4 3 4 4 6 8 16 21 23 26 27 29 31 33 34 31 26 26 27 25 23 22 21 21 21
5 4 3 4 2 5 7 5 6 6 4 4 6 3 3 4 3 4 5 3 1 5 7 11 15 17 18 22 25 27 31 32 33 35 33 29 26 26 22 21 20 18 19 18
1 2 4 3 4 7 3 2 7 5 7 4 5 4 3 4 2 3 5 4 6 6 9 14 19 20 21 27 26 25 28 30 33 33 31 27 24 22 20 17 15 14 13 12
4 3 10 5 4 8 7 6 3 4 6 4 4 2 1 2 4 5 7 7 9 12 15 18 18 19 23 25 24 24 29 32 32 29 26 24 21 20 18 14 11 10 9 8
7 8 5 5 3 10 6 4 9 5 3 5 3 2 4 4 7 7 7 7 9 12 17 23 23 25 26 24 20 25 27 30 28 26 23 19 17 15 15 13 9 7 8 7
2 6 5 8 7 3 1 5 1 4 5 4 2 2 4 7 8 8 8 7 6 10 15 23 22 25 28 24 20 23 28 24 22 22 20 18 14 11 10 12 10 10 10 10
3 2 3 4 5 4 5 3 4 1 1 3 2 3 4 7 8 8 9 10 8 14 17 21 21 24 28 27 24 21 22 20 19 19 17 14 12 9 8 10 10 9 10 10
4 5 5 3 4 1 1 2 5 4 5 4 6 5 7 7 9 8 7 7 15 18 19 18 19 21 24 24 22 20 19 16 16 17 16 13 11 10 9 9 8 8 7 9
5 6 5 5 4 3 4 6 4 7 7 9 8 7 7 10 10 8 7 13 16 19 25 24 23 21 23 21 22 19 16 13 15 16 15 15 12 10 10 9 7 7 9 8
Wind_Direction
46 101 187 201 187 156 145 135 148 258 71 179 240 259 278 279 262 268 257 256 246 247 250 244 239 236 230 229 224 224 223 221 218 214 219 222 225 228 233 228 226 228 228 227
51 220 215 185 177 185 117 130 237 330 276 180 292 275 256 264 255 230 245 254 243 255 264 251 244 237 231 228 227 223 223 222 221 216 218 217 221 227 232 235 235 232 233 233
155 213 151 163 152 145 171 169 190 197 305 324 325 295 330 288 248 262 260 249 250 239 255 267 257 243 236 227 226 224 224 221 222 219 215 216 220 229 229 231 231 231 233 236
206 231 142 140 172 131 180 193 172 148 92 232 14 281 300 284 300 301 274 295 275 269 265 256 264 262 246 236 230 226 223 222 222 220 218 216 215 219 229 230 235 234 232 237
227 169 148 148 201 150 215 160 152 124 121 45 323 68 273 303 285 270 298 298 6 351 278 312 284 269 270 254 239 230 225 223 223 222 222 224 221 229 234 238 238 239 237 236
133 322 144 173 82 133 143 75 45 51 75 285 220 165 281 219 220 283 10 95 61 53 51 53 58 43 354 299 243 235 228 225 226 227 227 229 231 233 236 241 243 243 242 241
58 143 356 131 79 31 83 83 335 335 353 230 16 139 247 257 252 266 330 271 14 15 12 351 355 1 3 8 309 230 226 229 231 232 235 237 240 243 245 248 250 249 245 241
154 233 180 189 174 175 183 155 162 201 203 276 319 237 240 232 286 253 77 48 20 21 11 360 349 2 13 11 26 229 227 235 238 239 243 245 246 247 250 252 253 254 253 253
153 254 41 114 150 139 187 189 176 102 28 59 235 294 306 334 305 60 62 63 28 8 11 13 17 44 68 70 45 348 248 248 247 247 249 249 248 248 251 255 256 257 259 259
198 131 24 22 130 51 154 166 82 7 163 265 271 251 224 270 271 50 54 49 21 2 29 38 24 36 71 72 110 171 231 270 277 263 255 254 252 253 256 258 259 258 260 261
149 116 257 123 208 169 141 182 114 129 153 181 245 260 222 249 110 116 99 37 25 42 43 13 14 4 352 337 296 272 257 267 286 285 266 259 260 263 263 263 264 264 265 264
191 132 164 196 300 276 185 195 153 147 226 242 159 250 37 125 116 112 86 47 324 328 62 319 313 323 310 303 287 285 293 277 283 280 273 266 267 270 271 272 269 266 265 265
179 198 77 359 356 340 197 200 187 114 75 213 147 260 356 108 67 67 62 19 354 337 308 299 324 298 290 286 301 304 305 297 296 291 284 275 272 273 275 279 279 271 264 262
94 128 157 191 174 139 161 163 132 169 179 215 231 207 212 278 6 335 347 331 282 295 325 328 332 330 337 339 342 335 329 323 316 304 292 283 279 279 280 285 285 276 266 262
82 157 140 213 106 77 117 191 187 187 231 196 269 267 217 339 317 310 286 281 307 354 353 357 349 347 351 353 351 348 344 341 337 328 314 299 295 291 288 284 283 280 269 263
13 194 142 297 154 187 236 256 252 227 238 265 260 268 210 240 249 264 293 325 32 27 12 355 346 350 347 339 336 334 334 334 331 323 316 312 305 300 293 286 283 282 276 268
137 132 128 244 178 129 254 228 222 226 206 209 228 259 271 277 286 291 15 78 44 360 341 343 334 328 332 332 331 328 326 326 325 322 319 317 314 309 302 293 287 285 279 269
136 128 124 196 136 206 235 325 213 222 243 241 258 274 29 56 291 176 105 95 45 337 319 314 316 327 327 325 326 323 322 323 324 322 322 319 313 310 309 301 291 282 276 270
125 123 141 183 215 310 288 175 169 160 249 211 243 342 41 314 200 182 167 142 247 291 300 313 321 316 319 321 324 319 315 318 317 316 315 316 314 308 305 298 291 281 272 268
49 171 180 144 161 216 253 191 113 94 263 141 127 96 35 6 14 252 297 323 302 267 291 311 320 314 313 322 320 311 307 310 306 311 308 309 307 300 295 291 284 274 266 262
176 192 211 194 214 282 223 159 93 116 243 186 129 160 211 221 207 244 301 297 292 302 319 327 324 312 312 319 316 307 308 301 308 303 301 301 300 296 288 277 269 262 256 246
164 165 195 193 165 258 152 81 165 194 131 151 184 238 274 249 278 270 264 266 287 302 322 330 324 320 322 321 318 307 299 309 303 296 294 291 291 287 280 265 240 227 221 212
213 181 180 177 201 213 98 134 188 124 137 195 160 198 223 274 287 302 306 315 285 302 315 323 321 318 319 323 321 303 305 307 299 290 285 286 280 273 264 261 235 185 193 196
271 155 178 80 257 178 129 108 119 169 149 132 205 255 273 266 274 286 293 298 301 310 312 320 317 315 311 318 315 303 303 304 290 277 273 267 257 250 239 227 222 191 175 179
196 137 183 261 276 184 157 172 156 196 221 255 288 260 252 271 274 251 258 274 294 301 307 312 308 304 300 308 305 302 299 295 279 269 262 246 237 226 213 212 208 169 175 185
180 187 189 219 183 119 268 279 156 180 216 233 236 262 250 221 249 269 276 281 285 296 311 309 306 304 303 301 299 297 289 285 274 261 252 245 228 206 187 184 167 113 123 130